This demonstration page uses our WeatherBlox Daily Observations layout. Learn more.

Left ArrowRight Arrow

34.02893, -84.19858

Hourly Observations for February 2, 2022

Temp ( °F °C ) Dew Point ( °F °C ) Humidity (%) Winds ( mph kmh ) Pressure ( in mb ) Visibility ( mi km ) Precip ( " mm )
12:53 am 00:53 Clear 47 8.3 32 0 56 56 VRB 3 6 30.27 1025 10 16 0.00 0.00
1:53 am 01:53 Clear 45 7.2 32 0 61 61 VRB 5 7 30.26 1025 10 16 0.00 0.00
2:53 am 02:53 Clear 44 6.7 31 -0.6 60 60 E 6 9 30.24 1024 10 16 0.00 0.00
3:53 am 03:53 Mostly Clear 44 6.7 30 -1.1 58 58 VRB 5 7 30.26 1025 10 16 0.00 0.00
4:25 am 04:25 Mostly Cloudy 44 6.7 29 -1.7 55 55 E 3 6 30.26 1025 10 16 0.00 0.00
4:53 am 04:53 Cloudy 44 6.7 29 -1.7 55 55 VRB 3 6 30.24 1024 10 16 0.00 0.00
5:46 am 05:46 Mostly Clear 44 6.7 29 -1.7 55 55 VRB 7 11 30.27 1025 10 16 0.00 0.00
5:53 am 05:53 Mostly Clear 44 6.7 29 -1.7 55 55 VRB 5 7 30.26 1025 10 16 0.00 0.00
6:53 am 06:53 Partly Cloudy 44 6.7 30 -1.1 58 58 VRB 6 9 30.27 1025 10 16 0.00 0.00
7:39 am 07:39 Cloudy 44 6.7 31 -0.6 60 60 E 9 15 30.26 1025 10 16 0.00 0.00
7:53 am 07:53 Cloudy 44 6.7 31 -0.6 60 60 VRB 3 6 30.26 1025 10 16 0.00 0.00
8:53 am 08:53 Cloudy 45 7.2 32 0 61 61 E 8 13 30.27 1025 10 16 0.00 0.00
9:53 am 09:53 Cloudy 46 7.8 34 1.1 63 63 VRB 5 7 30.29 1026 10 16 0.00 0.00
10:53 am 10:53 Cloudy 49 9.4 36 2.2 61 61 VRB 5 7 30.29 1026 10 16 0.00 0.00
11:53 am 11:53 Mostly Cloudy 51 10.6 36 2.2 56 56 E 7 11 30.27 1025 10 16 0.00 0.00
12:53 pm 12:53 Partly Cloudy 54 12.2 38 3.3 55 55 E 7 11 30.22 1023 10 16 0.00 0.00
1:53 pm 13:53 Cloudy 53 11.7 38 3.3 57 57 E 8 13 30.16 1022 10 16 0.00 0.00
2:53 pm 14:53 Partly Cloudy 55 12.8 39 3.9 55 55 E 8 13 30.14 1021 10 16 0.00 0.00
3:53 pm 15:53 Mostly Cloudy 55 12.8 40 4.4 57 57 E 9 15 30.13 1020 10 16 0.00 0.00
4:53 pm 16:53 Cloudy 54 12.2 40 4.4 59 59 VRB 3 6 30.14 1021 10 16 0.00 0.00
5:53 pm 17:53 Cloudy 53 11.7 39 3.9 59 59 VRB 5 7 30.14 1021 10 16 0.00 0.00
6:34 pm 18:34 Cloudy with Light Rain 51 10.6 39 3.9 64 64 VRB 6 9 30.18 1022 10 16 0.00 0.00
6:53 pm 18:53 Cloudy with Light Rain 51 10.6 39 3.9 64 64 VRB 3 6 30.21 1023 10 16 0.00 0.00
7:03 pm 19:03 Cloudy with Light Rain 50 10 39 3.9 66 66 ENE 8 13 30.19 1022 10 16 0.00 0.00
7:53 pm 19:53 Cloudy with Light Rain 47 8.3 40 4.4 77 77 ENE 8 13 30.18 1022 7 11 0.05 1.27
8:53 pm 20:53 Cloudy with Light Rain 46 7.8 40 4.4 79 79 VRB 5 7 30.18 1022 8 13 0.01 0.25
9:53 pm 21:53 Cloudy with Light Rain 44 6.7 40 4.4 85 85 VRB 7 11 30.18 1022 6 10 0.07 1.78
10:53 pm 22:53 Cloudy with Light Rain 44 6.7 41 5 89 89 VRB 5 7 30.16 1021 7 11 0.03 0.76
11:08 pm 23:08 Cloudy with Light Rain 44 6.7 41 5 89 89 VRB 5 7 30.16 1021 5 8 0.02 0.51
11:53 pm 23:53 Cloudy 44 6.7 41 5 89 89 E 6 9 30.15 1021 7 11 0.05 1.27

Powered by AerisWeather